sat.trackr.live / text

‹ back to catalog

YAOGAN-33 04

NORAD 57958 · 2023-149A

PAYLOAD ACTIVE UNKNOWN

§ Identity

Operator
Country
PRC
Launch date
2023-09-26
Launch site
JSC
Launch vehicle
Mass (kg)
RCS (m²)

External: N2YO · Heavens-Above · Gunter

§ Orbital elements

Epoch: 2026-05-25T03:32:10.798080Z

Period
98.72 min
Inclination
98.1956°
Eccentricity
0.0002140
Mean motion
14.58707368 rev/d
Perigee alt
695.8 km
Apogee alt
698.9 km
Semi-major
7,075.5 km
B*
8.8536e-5
RAAN
94.8470°
Arg perigee
81.5785°
Mean anomaly
278.5657°
Rev number
14,164

§ Raw data

YAOGAN-33 041 57958U 23149A   26145.14734720  .00000367  00000+0  88536-4 0  99982 57958  98.1956  94.8470 0002140  81.5785 278.5657 14.58707368141642

JSON: /api/v1/satellites/57958 · /tle

For live sub-satellite position, see the globe view (requires WebGL).

§ Visibility from observer

Set your observer location to see the next 7 days of passes ≥ 10°. The values pass through the URL so the page stays shareable.

No JS? Fill the form by hand. The geolocation button needs JavaScript.